User: anonymous   Login
Location: Unspecified
(0.0000°N, 0.0000°E)
Time: 23:59:49
(UTC+00:00)
Language:

GONETS M 12 (M22) - Orbit

View from above orbital plane
View from above orbital plane
View from above satellite
View from above satellite

Ground track
Ground track

The orbit data is extracted from the following two-line orbital elements,

1 40553U 15020B   17172.69979626 +.00000010 +00000-0 +00000-0 0  9998
2 40553 082.4903 276.3679 0012986 306.7925 053.1964 12.42895781101000
Epoch (UTC): 21 June 2017 16:47:42
Eccentricity: 0.0012986
inclination: 82.4903°
perigee height: 1484 km
apogee height: 1504 km
right ascension of ascending node: 276.3679°
argument of perigee: 306.7925°
revolutions per day: 12.42895781
mean anomaly at epoch: 53.1964°
orbit number at epoch: 10100

The dashed part of the orbit path shows where the satellite is in the earth's shadow,  

DLR